Greenville, ME

9:37 AM EST on November 20, 2017 (GMT -0500)
Greenville

Weather History for KGNR - November, 2012

Change the Weather History Date:

Sunday, November 11, 2012

  Actual Average (KMLT) Record (KMLT)
Temperature  
Mean Temperature 30 °F -  
Max Temperature 36 °F 43 °F 66 °F (1903)
Min Temperature 24 °F 29 °F 11 °F (1930)
Degree Days  
Heating Degree Days 35    
Moisture  
Dew Point 23 °F    
Average Humidity 73    
Maximum Humidity 100    
Minimum Humidity 56    
Precipitation  
Precipitation 0.00 in - - ()
Sea Level Pressure  
Sea Level Pressure 30.44 in    
Wind  
Wind Speed 4 mph (ESE)    
Max Wind Speed 8 mph    
Max Gust Speed -    
Averages and records for this station are not official NWS values.
T = Trace of Precipitation, MM = Missing Value Source: NWS Daily Summary

Daily Weather History Graph

Daily Weather History Graph

Search for Another Location

Airport or City:

Trip Planner

Search our weather history database for the weather conditions in past years. The results will help you decide how hot, cold, wet, or windy it might be!

Date:

Astronomy

Nov. 11, 2012 Rise Set
Actual Time 6:32 AM EST 4:11 PM EST
Civil Twilight 6:00 AM EST 4:43 PM EST
Nautical Twilight 5:24 AM EST 5:19 PM EST
Astronomical Twilight 4:50 AM EST 5:54 PM EST
Moon 3:36 AM EST (11/11) 2:38 PM EST (11/11)
Length of Visible Light 10h 43m
Length of Day
9h 39m
Waning Crescent, 7% of the Moon is Illuminated
Nov 11
Waning Crescent
Nov 13
New
Nov 20
First Quarter
Nov 28
Full
Dec 6
Last Quarter

Hourly Weather History & Observations

Time (EST) Temp. Windchill Dew Point Humidity Pressure Visibility Wind Dir Wind Speed Gust Speed Precip Events Conditions
12:56 AM 28.0 °F 22.8 °F 16.0 °F 61% 30.43 in - North 4.6 mph - N/A   Unknown
1:56 AM 27.0 °F - 17.1 °F 66% 30.44 in - Calm Calm - N/A   Unknown
2:56 AM 24.1 °F 19.7 °F 18.0 °F 77% 30.44 in - NE 3.5 mph - N/A   Unknown
3:56 AM 25.0 °F - 18.0 °F 75% 30.45 in - Calm Calm - N/A   Unknown
4:56 AM 26.1 °F - 17.1 °F 69% 30.47 in - Calm Calm - N/A   Unknown
5:56 AM 26.1 °F - 16.0 °F 66% 30.49 in - Calm Calm - N/A   Unknown
6:56 AM 28.0 °F 24.2 °F 16.0 °F 61% 30.49 in - SE 3.5 mph - N/A   Unknown
7:56 AM 28.9 °F 23.9 °F 17.1 °F 61% 30.49 in - Variable 4.6 mph - N/A   Unknown
8:56 AM 28.9 °F 23.9 °F 18.0 °F 64% 30.46 in - SE 4.6 mph - N/A   Unknown
9:56 AM 30.0 °F 26.5 °F 19.0 °F 64% 30.48 in - Variable 3.5 mph - N/A   Unknown
10:56 AM 32.0 °F 25.6 °F 18.0 °F 56% 30.45 in - Variable 6.9 mph - N/A   Unknown
11:56 AM 32.0 °F 24.8 °F 19.9 °F 61% 30.44 in - SE 8.1 mph - N/A   Unknown
12:56 PM 32.0 °F 26.4 °F 24.1 °F 73% 30.41 in - SE 5.8 mph - N/A   Unknown
1:56 PM 33.1 °F 28.7 °F 24.1 °F 70% 30.40 in - SE 4.6 mph - N/A   Unknown
2:56 PM 34.0 °F 29.8 °F 24.1 °F 67% 30.42 in - SE 4.6 mph - N/A   Unknown
3:56 PM 34.0 °F 29.8 °F 25.0 °F 70% 30.43 in - Variable 4.6 mph - N/A   Unknown
4:56 PM 34.0 °F 29.8 °F 26.1 °F 73% 30.43 in - ESE 4.6 mph - N/A   Unknown
5:56 PM 34.0 °F 29.8 °F 27.0 °F 75% 30.44 in - ESE 4.6 mph - N/A   Unknown
6:56 PM 32.0 °F 25.6 °F 25.0 °F 75% 30.44 in - ESE 6.9 mph - N/A   Unknown
7:56 PM 32.0 °F 26.4 °F 27.0 °F 82% 30.43 in - ESE 5.8 mph - N/A   Unknown
8:56 PM 35.1 °F 30.1 °F 32.0 °F 89% 30.43 in - ESE 5.8 mph - N/A   Unknown
9:56 PM 36.0 °F - 34.0 °F 93% 30.43 in - Calm Calm - N/A   Unknown
10:56 PM 36.0 °F 33.3 °F 36.0 °F 100% 30.42 in - ESE 3.5 mph - N/A   Unknown
11:56 PM 35.1 °F 29.3 °F 35.1 °F 100% 30.42 in - ESE 6.9 mph - N/A   Unknown